{"data":{"norad_id":55169,"intl_designator":"2023-004AF","name":"ONEWEB-0628","alt_names":[],"object_type":"PAYLOAD","status":"ACTIVE","operator":null,"country":"UK","launch_date":"2023-01-10","launch_site_code":"AFETR","launch_vehicle":null,"mission":null,"orbit_class":"UNKNOWN","rcs_meters":null,"size_class":null,"mass_kg":null,"dimensions":null,"purposes":["comms"],"wikipedia_slug":null,"has_3d_model":false,"image_url":null,"decayed_at":null,"tle_current":{"epoch":"2026-09-19T22:32:20.205600Z","epoch_age_seconds":70487,"freshness":"FRESH","line1":"1 55169U 23004AF  26262.93912275  .00000125  00000+0  31095-3 0  9999","line2":"2 55169  87.8982 331.8446 0002437 109.1525 250.9868 13.12442805180465","mean_motion":13.12442805,"eccentricity":0.0002437,"inclination_deg":87.8982,"raan_deg":331.8446,"arg_perigee_deg":109.1525,"mean_anomaly_deg":250.9868,"bstar":0.00031095,"rev_number":18046,"period_min":109.71906695774,"perigee_km":1211.8739065,"apogee_km":1215.5741795724,"semimajor_km":7591.8610430362,"source":"CELESTRAK","updated_at":"2026-09-20T09:00:44.756338Z"}}}